User: anonymous   Login
Location: Owatonna
(44.0840°N, 93.2260°W)
Time: 06:29:25
(UTC-05:00)
Language:

Cosmos 1500 Rocket - Orbit

View from above orbital plane
View from above orbital plane
View from above satellite
View from above satellite

Ground track
Ground track

The orbit data is extracted from the following two-line orbital elements,

1 14373U 83099B   15140.81698256  .00000449  00000-0  51564-4 0  9995
2 14373 082.5426 233.1512 0019698 205.0731 294.6246 14.83446752708434
Epoch (UTC): 20 May 2015 19:36:27
Eccentricity: 0.0019698
inclination: 82.5426°
perigee height: 604 km
apogee height: 632 km
right ascension of ascending node: 233.1512°
argument of perigee: 205.0731°
revolutions per day: 14.83446752
mean anomaly at epoch: 294.6246°
orbit number at epoch: 70843

The dashed part of the orbit path shows where the satellite is in the earth's shadow,  

DLR